Flag for Austria Weather past 2 weeks in Vöcklabruck, Upper Austria, Austria

Now
58 °F

Cool.


Feels Like: 58 °F
Forecast: 35 / 46 °F
Wind: 2 mph from Southwest

Location: Kremsmuenster

Current Time: Oct 21, 2014 at 2:41:24 PM

Latest Report: Oct 21, 2014 at 2:00 PM


Visibility: N/A

Pressure: 29.88 "Hg

Humidity: 84%

Dew point: 53 °F

Location of VöcklabruckLocation

Historic Weather in Vöcklabruck — Graph

°F

Vöcklabruck temperature yesterday

Maximum temperature yesterday: 73 °F (at 3:00 PM)
Minimum temperature yesterday: 50 °F (at 5:00 AM)
Average temperature yesterday: 61 °F

Past Weeks' High & Low Weather Summary

 TemperatureHumidityPressure
High73 °F (Oct 20, 3:00 PM)100% (Oct 9, 6:00 AM)30.32 "Hg (Oct 9, 6:00 AM)
Low43 °F (Oct 7, 7:00 AM)55% (Oct 20, 3:00 PM)29.62 "Hg (Oct 14, 1:00 AM)
Average57 °F88%29.97 "Hg
* Reported Oct 6 1:00 PM — Oct 21 1:00 PM, Vöcklabruck, Weather by CustomWeather, © 2014

Note: Actual official high and low records may vary slightly from our data, if they occured in-between our weather recording intervals... More about our weather records

Advertising

Vöcklabruck weather history for previous 24 hours

 ConditionsComfort  
Time TempWeatherWind HumidityBarometerVisibility
1:00 PM
Oct 21
58 °FFog.5 mph80%29.92 "HgN/A
12:00 PM59 °FCool.2 mph84%29.93 "HgN/A
11:00 AM57 °FOvercast.2 mph83%29.95 "Hg14 mi
10:00 AM57 °FCool.3 mph86%29.95 "HgN/A
9:00 AM55 °FCool.5 mph91%29.95 "HgN/A
8:00 AM54 °FLight rain. Overcast.5 mph94%29.96 "Hg10 mi
7:00 AM55 °FLight rain. Overcast.5 mph94%29.96 "Hg9 mi
6:00 AM55 °FCool.5 mph93%29.97 "HgN/A
5:00 AM55 °FCool.6 mph94%29.97 "HgN/A
4:00 AM56 °FCool.6 mph94%29.99 "HgN/A
3:00 AM56 °FFog.5 mph92%29.98 "HgN/A
2:00 AM57 °FCool.5 mph92%29.99 "HgN/A
1:00 AM58 °FCool.3 mph94%29.99 "HgN/A
12:00 AM58 °FCool.3 mph94%29.99 "HgN/A
11:00 PM
Oct 20
59 °FCool.3 mph94%30.02 "HgN/A
10:00 PM60 °FFog.3 mph93%30.03 "HgN/A
9:00 PM63 °FMild.5 mph81%30.01 "HgN/A
8:00 PM63 °FPassing clouds.2 mph80%30.00 "Hg7 mi
7:00 PM63 °FMild.3 mph79%30.00 "HgN/A
6:00 PM65 °FMild.2 mph78%30.00 "HgN/A
5:00 PM65 °FOvercast.No wind76%30.02 "Hg7 mi
4:00 PM68 °FMild.2 mph67%30.03 "HgN/A
3:00 PM73 °FMild.5 mph55%30.01 "HgN/A
2:00 PM71 °FMild.6 mph60%30.04 "HgN/A
Weather by CustomWeather, © 2014

See weather overviewHow to use our weather pages